Regional Weather Roundup
Issued by NWS Grand Forks, ND

Home | Current Version | Previous Version | Graphics & Text | Print | Product List | Glossary On
Versions: 1 2 3 4 5 6 7 8 9 10 11 12 13 14 15 16 17 18 19 20 21 22 23 24 25 26 27 28 29 30 31 32 33 34 35 36 37 38 39 40 41 42 43 44 45 46 47 48 49 50
000
ASUS43 KFGF 200010
RWRFGF
PRAIRIE TO PINES  WEATHER ROUNDUP
NATIONAL WEATHER SERVICE EASTERN NORTH DAKOTA/GRAND FORKS ND
700 PM CDT FRI SEP 19 2014

 **SATELLITE DATA USED TO AUGMENT SKY COVER AT AUTOMATED STATIONS**
 *****  WEATHER ACROSS EASTERN NORTH DAKOTA  *****

CITY           SKY/WX    TMP DP  RH WIND       PRES   REMARKS
GRAND FORKS    PTCLDY    78  55  44 W6        29.49F
6HR MIN TEMP:  68; 6HR MAX TEMP:  84;

GRAND FRKS AFB PTCLDY    76  57  51 W7        29.51S
GRAND FRKS NWS   N/A     73 N/A N/A W5          N/A
DEVILS LAKE    CLEAR     75  54  46 NW13      29.57R
6HR MIN TEMP:  73; 6HR MAX TEMP:  82;

FARGO          PTCLDY    77  66  68 S12       29.56R
WAHPETON ARPT  CLEAR     75  61  60 SW8       29.61R
$$

 ***** WEATHER ACROSS CENTRAL AND WESTERN NORTH DAKOTA  *****

CITY           SKY/WX    TMP DP  RH WIND       PRES   REMARKS
BISMARCK       CLOUDY    77  51  40 W14       29.69R
6HR MIN TEMP:  77; 6HR MAX TEMP:  87;

MINOT          PTCLDY    69  55  60 NW16      29.69R
6HR MIN TEMP:  67; 6HR MAX TEMP:  82; 6HR PCP: TRACE;

JAMESTOWN      MOCLDY    74  53  48 W7        29.62R
6HR MIN TEMP:  74; 6HR MAX TEMP:  82;

MINOT AFB      PTCLDY    79  50  36 W20G30    29.56R
GARRISON         N/A     74  55  51 NW17G23   29.70R
WILLISTON      CLEAR     72  50  45 NW14      29.76R
6HR MIN TEMP:  72; 6HR MAX TEMP:  80;

DICKINSON      CLOUDY    72  48  42 W14       29.77R
6HR MIN TEMP:  72; 6HR MAX TEMP:  80;

HETTINGER      CLOUDY    71  49  45 W10       29.82R
6HR MIN TEMP:  71; 6HR MAX TEMP:  80;

$$

 *****  OTHER AIRPORT OBSERVATIONS IN OUR AREA  *****

CITY           SKY/WX    TMP DP  RH WIND       PRES   REMARKS
WALHALLA         N/A     64  59  82 N16G23    29.57R
GRAFTON AIRPOR FAIR      77  54  44 NW20      29.49R
VALLEY CITY AR FAIR      75  55  50 W9        29.61R
CANDO          FAIR      70  57  64 NW14      29.61R
CAVALIER APRT  FAIR      66  59  77 N18G26    29.55R
GWINNER        CLEAR     77  57  50 W6        29.64R
SHEYENNE NWR     N/A     77  62  58 W3        29.95S
ROLLA          FAIR      66  55  68 NW14G20   29.65R
 ***** THE ABOVE OBSERVATIONS ARE NON NWS ARE NOT QUALITY
       CONTROLLED AND MAY MIS-REPORT RAIN FOR SNOW...
$$

  *****  WEATHER ACROSS NORTHERN MINNESOTA  *****

CITY           SKY/WX    TMP DP  RH WIND       PRES   REMARKS
FLAG ISLAND    MOCLDY    63  61  94 CALM      29.51S FOG
WARROAD        MOCLDY    68  64  88 CALM      29.53R
ROSEAU         PTCLDY    70  63  78 CALM      29.52R
HALLOCK        PTCLDY    73  61  64 NW13G24   29.48R
THF RVR FALLS  CLEAR     72  64  78 S9        29.52F
6HR MIN TEMP:  63; 6HR MAX TEMP:  73; 6HR PCP:  0.01;

BAUDETTE       MOCLDY    65  62  90 CALM      29.54S
6HR MIN TEMP:  62; 6HR MAX TEMP:  69; 6HR PCP:  0.11;

WASKISH        MOCLDY    66  63  88 CALM      29.57S
CROOKSTON      PTCLDY    75  66  73 SW7       29.52S
STEPHEN NDAWN    N/A     79  55  44 W12         N/A
GREENBUSH NDAW   N/A     72  66  83 SE7         N/A
$$
  *****  WEATHER ACROSS CENTRAL AND WEST MINNESOTA  *****

CITY           SKY/WX    TMP DP  RH WIND       PRES   REMARKS
FOSSTON        CLEAR     72  63  73 S8        29.57F
BEMIDJI        MOCLDY    65  62  88 S5        29.59F
PARK RAPIDS    CLOUDY    66  63  90 S7        29.62S
6HR MIN TEMP:  63; 6HR MAX TEMP:  68; 6HR PCP: TRACE;

ELBOW LAKE     FAIR      69  65  88 S7        29.64R
6HR MIN TEMP:  63; 6HR MAX TEMP:  72;

WADENA         PTCLDY    66  63  88 SW5       29.63S
DETROIT LAKES  CLEAR     70  64  83 S6        29.62S
MOORHEAD       CLEAR     75  70  83 SW7       29.58S
FERGUS FALLS   CLEAR     72  63  73 S8        29.62R
MORRIS MN      MOCLDY    73  66  78 SW5       29.65R
STAPLES        CLOUDY    64  63  94 S6        29.64R
$$
  *****  WEATHER ELSEWHERE ACROSS MINNESOTA  *****

CITY           SKY/WX    TMP DP  RH WIND       PRES   REMARKS
DULUTH         CLOUDY    64  60  87 SW10      29.64S FOG
6HR MIN TEMP:  61; 6HR MAX TEMP:  64; 6HR PCP:  0.02;

INTRNTL FALLS  CLOUDY    64  62  93 S7        29.56F
6HR MIN TEMP:  60; 6HR MAX TEMP:  64; 6HR PCP:  0.25;

ELY            CLOUDY    59  57  94 SW9       29.63S FOG
CLOQUET        CLOUDY    63  61  94 SW8       29.65R
WHEATON        PTCLDY    72  64  78 S7        29.64S
BRAINERD       CLOUDY    63  62  97 MISG      29.64S FOG
6HR MIN TEMP:  59; 6HR MAX TEMP:  63; 6HR PCP: TRACE;

HIBBING        CLOUDY    62  60  93 CALM      29.63S FOG
6HR MIN TEMP:  60; 6HR MAX TEMP:  62; 6HR PCP: TRACE;

ALEXANDRIA     MOCLDY    69  65  86 SW7       29.67S
6HR MIN TEMP:  62; 6HR MAX TEMP:  70; 6HR PCP:  0.03;

SAINT CLOUD    CLOUDY    69  64  84 CALM      29.66S
6HR MIN TEMP:  64; 6HR MAX TEMP:  70; 6HR PCP: TRACE;

MINNEAPOLIS    MOCLDY    74  63  68 CALM      29.67S
6HR MIN TEMP:  72; 6HR MAX TEMP:  81;

$$

  *****  WEATHER ACROSS SOUTH DAKOTA  *****

CITY           SKY/WX    TMP DP  RH WIND       PRES   REMARKS
SIOUX FALLS    PTCLDY    83  65  54 W5        29.70S
6HR MIN TEMP:  81; 6HR MAX TEMP:  89;

BROOKINGS      NOT AVBL
WATERTOWN      MOCLDY    73  65  75 SW6       29.70R
6HR MIN TEMP:  72; 6HR MAX TEMP:  79;

HURON          MOCLDY    81  60  48 NW6       29.68R
6HR MIN TEMP:  78; 6HR MAX TEMP:  87;

SISSETON         N/A     77  65  66 W13       29.62S
ABERDEEN       CLEAR     77  60  55 W6        29.67R
6HR MIN TEMP:  71; 6HR MAX TEMP:  85;

MITCHELL       MOCLDY    82  62  50 W3        29.70S
PIERRE         CLEAR     81  54  39 N9        29.73R
6HR MIN TEMP:  81; 6HR MAX TEMP:  87;

MOBRIDGE       CLEAR     78  52  40 NW10      29.71R
RAPID CITY     CLOUDY    78  49  35 N10       29.86R
6HR MIN TEMP:  77; 6HR MAX TEMP:  85;

$$

  *****  SOME WEATHER IN NEARBY STATES *****

CITY           SKY/WX    TMP DP  RH WIND       PRES   REMARKS
GLASGOW MT     MOSUNNY   73  51  46 NW10      29.79R
6HR MIN TEMP:  71; 6HR MAX TEMP:  78;

GREAT FALLS MT SUNNY     71  41  33 W25       29.95R
6HR MIN TEMP:  69; 6HR MAX TEMP:  76;

CHEYENNE WY    MOSUNNY   80  39  23 N14G24    30.03R
6HR MIN TEMP:  80; 6HR MAX TEMP:  88;

SCOTTSBLUFF NE CLEAR     88  48  25 NW9       29.87R
6HR MIN TEMP:  82; 6HR MAX TEMP:  91;

OMAHA NE       PTCLDY    83  69  62 S18       29.79R
6HR MIN TEMP:  77; 6HR MAX TEMP:  85;

DES MOINES IA  PTCLDY    76  65  68 S14       29.85S
6HR MIN TEMP:  76; 6HR MAX TEMP:  81;

DAVENPORT IA   PTCLDY    70  53  54 S12       29.94F
6HR MIN TEMP:  70; 6HR MAX TEMP:  76;

CHICAGO IL     MOCLDY    72  44  36 S9        29.98F
6HR MIN TEMP:  72; 6HR MAX TEMP:  78;

EAU CLAIRE WI  CLOUDY    73  59  61 S14       29.72F
6HR MIN TEMP:  69; 6HR MAX TEMP:  77;

LA CROSSE WI   PTCLDY    72  57  59 S9        29.78R
6HR MIN TEMP:  72; 6HR MAX TEMP:  77;

$$

  *****  SOME NATIONAL WEATHER *****

CITY           SKY/WX    TMP DP  RH WIND       PRES   REMARKS
LA GUARDIA NY  MOCLDY    62  47  57 SE10      30.36R
6HR MIN TEMP:  61; 6HR MAX TEMP:  66;

RALEIGH NC     PTCLDY    70  60  70 E7        30.20S
6HR MIN TEMP:  70; 6HR MAX TEMP:  80;

ATLANTA GA     PTCLDY    77  63  61 E13       30.09R
6HR MIN TEMP:  77; 6HR MAX TEMP:  84;

NEW ORLEANS LA PTCLDY    82  67  60 E13       29.93R
6HR MIN TEMP:  82; 6HR MAX TEMP:  89;

OKLAHOMA CITY  PTCLDY    83  65  54 SE9       29.94S
6HR MIN TEMP:  83; 6HR MAX TEMP:  87;

ALBUQUERQUE NM MOSUNNY   81  53  37 SE7       30.02S
6HR MIN TEMP:  76; 6HR MAX TEMP:  82;

SALT LAKE CITY MOSUNNY   81  49  32 NW10      30.01S
6HR MIN TEMP:  76; 6HR MAX TEMP:  82;



USA.gov is the U.S. government's official web portal to all federal, state and local government web resources and services.